Location: Buckhorn Peak
(37.6641°N, 120.1241°W)
Time: 23:41:45
(UTC+00:00)

Altair - Pass Details

Date: 11 November 2024
Orbit: 1501 x 1683 km, 47.2° (Epoch: 03 December)

Event Time Altitude Azimuth Distance (km) Brightness Sun altitude
Rises 02:09:21 0° 300° (WNW) 4,647 10.8 -15.4°
Reaches altitude 10° 02:12:28 10° 295° (WNW) 3,675 10.3 -16.0°
Maximum altitude 02:21:11 48° 224° (SW) 1,926 8.3 -17.7°
Drops below altitude 10° 02:30:12 10° 154° (SSE) 3,778 9.4 -19.5°
Sets 02:33:28 0° 149° (SSE) 4,787 9.9 -20.1°
